Regional Weather Roundup
Issued by NWS

Home | Current Version | Previous Version | Graphics & Text | Print | Product List | Glossary On
Versions: 1 2 3 4 5 6 7 8 9 10 11 12 13 14 15 16 17 18 19 20 21 22 23 24 25 26 27
000
ASUS45 KBOI 211610
RWRID

IDAHO REGIONAL WEATHER ROUNDUP
NATIONAL WEATHER SERVICE BOISE ID
1000 AM MDT MON AUG 21 2017

NOTE: "FAIR" INDICATES FEW OR NO CLOUDS BELOW 12000 FEET
WITH NO SIGNIFICANT WEATHER AND/OR OBSTRUCTIONS TO VISIBILITY

IDZ012-014-211700-
SOUTHWEST IDAHO


CITY           SKY/WX    TMP DP  RH WIND       PRES   REMARKS
BOISE          SUNNY     68  39  34 CALM      30.12R
CALDWELL       SUNNY     68  46  45 CALM      30.11S
MOUNTAIN HOME  MOSUNNY   70  37  30 VRB3      30.11R
$$

IDZ016-017-211700-
SOUTHCENTRAL IDAHO


CITY           SKY/WX    TMP DP  RH WIND       PRES   REMARKS
BURLEY         SUNNY     66  38  35 W8        30.17R
JEROME         MOSUNNY   66  38  35 SW7       30.17S
TWIN FALLS     MOSUNNY   73  34  23 SW12      30.17R
$$

IDZ019>023-211700-
SOUTHEAST IDAHO


CITY           SKY/WX    TMP DP  RH WIND       PRES   REMARKS
IDAHO FALLS    SUNNY     67  37  33 SW10      30.21R
POCATELLO      SUNNY     70  34  26 SW8       30.20R
REXBURG        SUNNY     66  35  31 SE7       30.22R
$$

IDZ006-010-011-018-031-032-211700-
CENTRAL IDAHO MOUNTAINS


CITY           SKY/WX    TMP DP  RH WIND       PRES   REMARKS
MCCALL         SUNNY     63  37  38 SW3       30.21R
HAILEY         MOSUNNY   64  34  32 W6        30.24R
STANLEY          N/A     52  31  44 CALM      30.32S
SALMON         SUNNY     60  36  40 VRB3      30.22F
CHALLIS        PTSUNNY   61  34  36 CALM      30.24S
$$

IDZ002-004-006-007-026-211700-
NORTHERN IDAHO


CITY           SKY/WX    TMP DP  RH WIND       PRES   REMARKS
LEWISTON       SUNNY     67  45  45 N5        30.14R
LOWELL           N/A     58  44  60 CALM      30.19F
COEUR D`ALENE  SUNNY     66  48  52 NE10      30.18R
MULLAN PASS    SUNNY     61  35  37 CALM      30.31R
$$




USA.gov is the U.S. government's official web portal to all federal, state and local government web resources and services.